Aviation Digital Data Service (ADDS)

Output produced by METARs form (1330 UTC 26 May 2018)
found at http://www.aviationweather.gov/adds/metars/
 
WAAA 261330Z 01001KT 8000 FEW019 26/25 Q1009 NOSIG
TAF WAAA 261100Z 2612/2718 VRB02KT 8000 SCT019 
     PROB40 
     TEMPO 2618/2622 6000 -RA 
     BECMG 2701/2703 32010KT 9999 FEW019 
     BECMG 2711/2713 10006KT 8000
       
TAF WABB 261100Z 2612/2718 00000KT 9000 SCT018 
     TEMPO 2620/2700 5000 RA FEW017CB BKN018
       
TAF WADD 261100Z 2612/2712 11012KT 9999 SCT017
       
WADL 261330Z 18005KT 8000 BKN016 26/23 Q1012 NOSIG
TAF WADL 261100Z 2612/2712 13005KT 8000 SCT016
       
WAJJ 260800Z 11010KT 9000 TS FEW012CB SCT013 30/23 Q1006 NOSIG
TAF WALL 261100Z 2612/2718 22004KT 9000 FEW018 
     BECMG 2615/2617 29005KT SCT018
       
WAMM 261300Z 02002KT 9999 FEW023 25/23 Q1009 NOSIG
TAF WAMM 261100Z 2612/2718 05002KT 9999 FEW022 
     BECMG 2700/2702 08008KT SCT022 
     PROB30 
     TEMPO 2704/2708 7000 -RA SCT018 
     BECMG 2709/2711 05002KT FEW022
       
TAF WAOO 261100Z 2612/2712 08006KT 9000 SCT017 
     PROB40 
     TEMPO 2622/2702 6000 RA
       
TAF WAPP 261100Z 2612/2712 34006KT 9999 SCT019
       
TAF WAQQ 261100Z 2612/2624 09003KT 8000 SCT015 
     BECMG 2615/2617 34005KT 
     TEMPO 2618/2621 4000 -TSRA FEW012CB BKN012
       
TAF WARR 261100Z 2612/2712 10011KT 8000 FEW020 
     BECMG 2618/2620 26005KT 4000 HZ 
     BECMG 2700/2702 12010KT 9999 NSW
       
TAF WATT 261100Z 2612/2712 09008KT 8000 FEW020 
     BECMG 2701/2703 12015KT
       
TAF WIDD 261100Z 2612/2712 19005KT 9000 SCT014 
     TEMPO 2619/2623 6000 -TSRA FEW013CB
       
TAF WIEE 261100Z 2612/2712 03005KT 8000 BKN018 
     TEMPO 2613/2615 05006KT 2000 RA BKN017 
     BECMG 2617/2618 02003KT 9000 NSW SCT019
       
TAF WIHH 261100Z 2612/2712 08006KT 6000 SCT020 
     BECMG 2621/2623 00000KT 5000 HZ FEW021
       
WIII 261300Z 19006KT 7000 FEW020 30/25 Q1010 NOSIG
TAF WIII 261100Z 2612/2718 10005KT 7000 SCT020 
     BECMG 2701/2703 07010KT
       
TAF WIMM 261100Z 2612/2712 VRB03KT 4000 HZ FEW016CB SCT018 
     TEMPO 2619/2623 24005KT -TSRA 
     BECMG 2702/2704 31010KT 9000 NSW SCT017
       
TAF WIPP 261100Z 2612/2712 35005KT 6000 -RA BKN012 
     BECMG 2614/2616 9999 SCT012 
     TEMPO 2621/2624 3000 BR 
     BECMG 2700/2702 12006KT
       
TAF WITT 260500Z 2606/2706 14005KT 9000 SCT018 
     PROB40 
     TEMPO 2609/2613 VRB04KT 3000 -TSRA FEW016CB BKN017 
     BECMG 2616/2618 00000KT 7000
       
WAAA 261330Z 01001KT 8000 FEW019 26/25 Q1009 NOSIG
TAF WAAA 261100Z 2612/2718 VRB02KT 8000 SCT019 
     PROB40 
     TEMPO 2618/2622 6000 -RA 
     BECMG 2701/2703 32010KT 9999 FEW019 
     BECMG 2711/2713 10006KT 8000
       
TAF WABB 261100Z 2612/2718 00000KT 9000 SCT018 
     TEMPO 2620/2700 5000 RA FEW017CB BKN018
       
TAF WADD 261100Z 2612/2712 11012KT 9999 SCT017
       
WADL 261330Z 18005KT 8000 BKN016 26/23 Q1012 NOSIG
TAF WADL 261100Z 2612/2712 13005KT 8000 SCT016
       
WAJJ 260800Z 11010KT 9000 TS FEW012CB SCT013 30/23 Q1006 NOSIG
TAF WALL 261100Z 2612/2718 22004KT 9000 FEW018 
     BECMG 2615/2617 29005KT SCT018
       
WAMM 261300Z 02002KT 9999 FEW023 25/23 Q1009 NOSIG
TAF WAMM 261100Z 2612/2718 05002KT 9999 FEW022 
     BECMG 2700/2702 08008KT SCT022 
     PROB30 
     TEMPO 2704/2708 7000 -RA SCT018 
     BECMG 2709/2711 05002KT FEW022
       
TAF WAOO 261100Z 2612/2712 08006KT 9000 SCT017 
     PROB40 
     TEMPO 2622/2702 6000 RA
       
TAF WAPP 261100Z 2612/2712 34006KT 9999 SCT019
       
TAF WAQQ 261100Z 2612/2624 09003KT 8000 SCT015 
     BECMG 2615/2617 34005KT 
     TEMPO 2618/2621 4000 -TSRA FEW012CB BKN012
       
TAF WARR 261100Z 2612/2712 10011KT 8000 FEW020 
     BECMG 2618/2620 26005KT 4000 HZ 
     BECMG 2700/2702 12010KT 9999 NSW
       
TAF WATT 261100Z 2612/2712 09008KT 8000 FEW020 
     BECMG 2701/2703 12015KT
       
TAF WABB 261100Z 2612/2718 00000KT 9000 SCT018 
     TEMPO 2620/2700 5000 RA FEW017CB BKN018
       
WAAA 261330Z 01001KT 8000 FEW019 26/25 Q1009 NOSIG
TAF WAAA 261100Z 2612/2718 VRB02KT 8000 SCT019 
     PROB40 
     TEMPO 2618/2622 6000 -RA 
     BECMG 2701/2703 32010KT 9999 FEW019 
     BECMG 2711/2713 10006KT 8000
       
WAAA 261330Z 01001KT 8000 FEW019 26/25 Q1009 NOSIG
TAF WAAA 261100Z 2612/2718 VRB02KT 8000 SCT019 
     PROB40 
     TEMPO 2618/2622 6000 -RA 
     BECMG 2701/2703 32010KT 9999 FEW019 
     BECMG 2711/2713 10006KT 8000
       
TAF WABB 261100Z 2612/2718 00000KT 9000 SCT018 
     TEMPO 2620/2700 5000 RA FEW017CB BKN018
       
TAF WADD 261100Z 2612/2712 11012KT 9999 SCT017
       
WADL 261330Z 18005KT 8000 BKN016 26/23 Q1012 NOSIG
TAF WADL 261100Z 2612/2712 13005KT 8000 SCT016
       
WAJJ 260800Z 11010KT 9000 TS FEW012CB SCT013 30/23 Q1006 NOSIG
TAF WALL 261100Z 2612/2718 22004KT 9000 FEW018 
     BECMG 2615/2617 29005KT SCT018
       
WAMM 261300Z 02002KT 9999 FEW023 25/23 Q1009 NOSIG
TAF WAMM 261100Z 2612/2718 05002KT 9999 FEW022 
     BECMG 2700/2702 08008KT SCT022 
     PROB30 
     TEMPO 2704/2708 7000 -RA SCT018 
     BECMG 2709/2711 05002KT FEW022
       
TAF WAOO 261100Z 2612/2712 08006KT 9000 SCT017 
     PROB40 
     TEMPO 2622/2702 6000 RA
       
TAF WAPP 261100Z 2612/2712 34006KT 9999 SCT019
       
TAF WAQQ 261100Z 2612/2624 09003KT 8000 SCT015 
     BECMG 2615/2617 34005KT 
     TEMPO 2618/2621 4000 -TSRA FEW012CB BKN012
       
TAF WARR 261100Z 2612/2712 10011KT 8000 FEW020 
     BECMG 2618/2620 26005KT 4000 HZ 
     BECMG 2700/2702 12010KT 9999 NSW
       
TAF WATT 261100Z 2612/2712 09008KT 8000 FEW020 
     BECMG 2701/2703 12015KT
       
TAF WIDD 261100Z 2612/2712 19005KT 9000 SCT014 
     TEMPO 2619/2623 6000 -TSRA FEW013CB
       
TAF WIEE 261100Z 2612/2712 03005KT 8000 BKN018 
     TEMPO 2613/2615 05006KT 2000 RA BKN017 
     BECMG 2617/2618 02003KT 9000 NSW SCT019
       
TAF WIHH 261100Z 2612/2712 08006KT 6000 SCT020 
     BECMG 2621/2623 00000KT 5000 HZ FEW021
       
WIII 261300Z 19006KT 7000 FEW020 30/25 Q1010 NOSIG
TAF WIII 261100Z 2612/2718 10005KT 7000 SCT020 
     BECMG 2701/2703 07010KT
       
TAF WIMM 261100Z 2612/2712 VRB03KT 4000 HZ FEW016CB SCT018 
     TEMPO 2619/2623 24005KT -TSRA 
     BECMG 2702/2704 31010KT 9000 NSW SCT017
       
TAF WIPP 261100Z 2612/2712 35005KT 6000 -RA BKN012 
     BECMG 2614/2616 9999 SCT012 
     TEMPO 2621/2624 3000 BR 
     BECMG 2700/2702 12006KT
       
TAF WITT 260500Z 2606/2706 14005KT 9000 SCT018 
     PROB40 
     TEMPO 2609/2613 VRB04KT 3000 -TSRA FEW016CB BKN017 
     BECMG 2616/2618 00000KT 7000
       
TAF WAPP 261100Z 2612/2712 34006KT 9999 SCT019
       
TAF WIMM 261100Z 2612/2712 VRB03KT 4000 HZ FEW016CB SCT018 
     TEMPO 2619/2623 24005KT -TSRA 
     BECMG 2702/2704 31010KT 9000 NSW SCT017
       
TAF WIDD 261100Z 2612/2712 19005KT 9000 SCT014 
     TEMPO 2619/2623 6000 -TSRA FEW013CB
       
TAF WIEE 261100Z 2612/2712 03005KT 8000 BKN018 
     TEMPO 2613/2615 05006KT 2000 RA BKN017 
     BECMG 2617/2618 02003KT 9000 NSW SCT019
       
TAF WIHH 261100Z 2612/2712 08006KT 6000 SCT020 
     BECMG 2621/2623 00000KT 5000 HZ FEW021
       
WIII 261300Z 19006KT 7000 FEW020 30/25 Q1010 NOSIG
TAF WIII 261100Z 2612/2718 10005KT 7000 SCT020 
     BECMG 2701/2703 07010KT
       
TAF WIMM 261100Z 2612/2712 VRB03KT 4000 HZ FEW016CB SCT018 
     TEMPO 2619/2623 24005KT -TSRA 
     BECMG 2702/2704 31010KT 9000 NSW SCT017
       
TAF WIPP 261100Z 2612/2712 35005KT 6000 -RA BKN012 
     BECMG 2614/2616 9999 SCT012 
     TEMPO 2621/2624 3000 BR 
     BECMG 2700/2702 12006KT
       
TAF WITT 260500Z 2606/2706 14005KT 9000 SCT018 
     PROB40 
     TEMPO 2609/2613 VRB04KT 3000 -TSRA FEW016CB BKN017 
     BECMG 2616/2618 00000KT 7000
       
WAMM 261300Z 02002KT 9999 FEW023 25/23 Q1009 NOSIG
TAF WAMM 261100Z 2612/2718 05002KT 9999 FEW022 
     BECMG 2700/2702 08008KT SCT022 
     PROB30 
     TEMPO 2704/2708 7000 -RA SCT018 
     BECMG 2709/2711 05002KT FEW022
       
WAJJ 260800Z 11010KT 9000 TS FEW012CB SCT013 30/23 Q1006 NOSIG
WIII 261300Z 19006KT 7000 FEW020 30/25 Q1010 NOSIG
TAF WIII 261100Z 2612/2718 10005KT 7000 SCT020 
     BECMG 2701/2703 07010KT
       
TAF WITT 260500Z 2606/2706 14005KT 9000 SCT018 
     PROB40 
     TEMPO 2609/2613 VRB04KT 3000 -TSRA FEW016CB BKN017 
     BECMG 2616/2618 00000KT 7000
       
TAF WIPP 261100Z 2612/2712 35005KT 6000 -RA BKN012 
     BECMG 2614/2616 9999 SCT012 
     TEMPO 2621/2624 3000 BR 
     BECMG 2700/2702 12006KT